Location: Maccacari
(45.1333°N, 11.1333°E)
Time: 02:42:47
(UTC+00:00)

Altair - Pass Details

Date: 25 January 2021
Orbit: 1501 x 1682 km, 47.2° (Epoch: 01 March)

Event Time Altitude Azimuth Distance (km) Brightness Sun altitude
Rises 04:34:45 0° 237° (WSW) 4,853 - -22.5°
Reaches altitude 10° 04:37:51 10° 236° (SW) 3,887 - -22.0°
Exits shadow 04:39:57 19° 234° (SW) 3,252 8.8 -21.6°
Maximum altitude 04:47:50 75° 153° (SSE) 1,728 7.8 -20.2°
Drops below altitude 10° 04:57:58 10° 71° (ENE) 3,947 10.6 -18.4°
Sets 05:01:08 0° 70° (ENE) 4,931 11.2 -17.9°
